Volver al catálogo

STARLINK-34916

ActivoComunicacionesVLEO
NORAD 65427·PAYLOAD·🇺🇸 United States

Lanzado Aug 31, 2025 desde Cape Canaveral Space Force Station

Loading…

Próximos Pases (próximas 24 horas)

TLE

ActualizadoSource: CelesTrak SupGP

Época: Sep 14, 2026, 21:13 UTC

1 65427C 25192Z   26257.88451389  .00037481  00000+0  12055-2 0  2575
2 65427  53.1581  72.3832 0001283  96.5439  36.6344 15.31677691    17

Sigue STARLINK-34916 en tiempo real con AllMySat

Download on the App Store